Regional Weather Roundup
Issued by NWS Wakefield, VA

Home | Current Version | Previous Version | Graphics & Text | Print | Product List | Glossary On
Versions: 1 2 3 4 5 6 7 8 9 10 11 12 13 14 15 16 17 18 19 20 21 22 23 24 25 26 27 28 29 30 31 32 33 34 35 36 37 38 39 40 41 42 43 44 45 46 47 48 49 50
322
ASUS41 KAKQ 031115
RWRAKQ

REGIONAL WEATHER ROUNDUP
NATIONAL WEATHER SERVICE WAKEFIELD VA
700 AM EDT TUE MAY 03 2016

Note: "fair" indicates few or no clouds below 12,000 feet with no
significant weather and/or obstructions to visibility. * = Denotes
station may not report precipitation (e.g., rain,snow,etc.),
thunder or fog.

VAZ042-051-052>054-056-031200-
NORTHERN VIRGINIA

CITY           SKY/WX    TMP DP  RH WIND       PRES   REMARKS
WASH NATIONAL  CLOUDY    62  62 100 S3        29.79S FOG
DULLES         LGT RAIN  63  61  93 N5        29.78F
FORT BELVOIR   MOCLDY    61  61 100 SE2       29.78F
QUANTICO       LGT RAIN  63  62  97 S3        29.80S
FREDERICKSBRG* CLOUDY    63  63 100 CALM      29.79S
STAFFORD*      CLOUDY    62  60  95 CALM      29.84S FOG
WARRENTON      CLOUDY    63  58  85 S3        29.79S HAZE
CULPEPER*      CLOUDY    63  63 100 CALM      29.81R FOG
MANASSAS*      PTCLDY    61  61 100 CALM      29.79F FOG
LEESBURG*      CLOUDY    63  63 100 CALM      29.80S
WINCHESTER     CLOUDY    61  59  94 CALM      29.81S FOG
FRONT ROYAL*   PTSUNNY   59  59 100 CALM      29.81R
LURAY*         CLOUDY    59  59 100 CALM      29.82R FOG
$$

VAZ048-049-060>072-079>083-031200-
CENTRAL AND SOUTH CENTRAL VIRGINIA

CITY           SKY/WX    TMP DP  RH WIND       PRES   REMARKS
RICHMOND       LGT RAIN  64  64 100 SW6       29.80S
CHESTERFIELD*  CLOUDY    64  54  68 W5        29.82S
PETERSBURG*    LGT RAIN  65  65 100 SW3       29.82S
HANOVER        CLOUDY    64  62  93 SW8       29.82S
TAPPAHANNOCK*  RAIN      66  66 100 SE3       29.81S
QUINTON*       CLOUDY    64  64 100 MISG      29.80S
CHARLOTTSVILLE CLOUDY    62  59  90 SW3       29.80S
GORDONSVILLE*  CLOUDY    61  61 100 SW5       29.80S FOG
ORANGE*        FOG       61  61 100 CALM      29.83R VSB 1/4
LOUISA*        CLOUDY    64  64 100 SW5       29.80R FOG
BUMPASS*       CLOUDY    61  61  99 SW3       29.80S
FARMVILLE*     DRIZZLE   63  63 100 S3        29.81S
CREWE*         CLOUDY    63  63 100 NW3       29.82S
FORT PICKETT*  NOT AVBL
CHASE CITY*    CLOUDY    63  61  94 CALM      29.82F
CLARKSVILLE*   CLOUDY    63  63 100 CALM      29.82S
SOUTH HILL*    CLOUDY    63  63 100 S5        29.88S
LAWRENCEVILLE* CLOUDY    64  64 100 CALM      29.82S
EMPORIA*       FLURRIES  63  63 100 CALM      29.83F
$$

VAZ088>098-031200-
SOUTHEAST VIRGINIA

CITY           SKY/WX    TMP DP  RH WIND       PRES   REMARKS
NORFOLK        CLOUDY    68  63  84 SW12      29.80F
VIRGINIA BEACH CLOUDY    71  63  75 SW9       29.80F
NORFOLK NAVAL  CLOUDY    68  64  87 SW9       29.82F
WEST POINT*    CLOUDY    65  64  97 CALM      29.81S
SALUDA*        CLOUDY    64  64 100 CALM      29.80S
NEWPORT NEWS   CLOUDY    66  65  96 SW9       29.81S
LANGLEY AFB    MOCLDY    66  65  96 SW8       29.80S
FORT EUSTIS    LGT RAIN  66  66 100 VRB2      29.79S
WILLIAMSBURG*  FAIR      66  66 100 CALM      29.82R
HR EXEC AP*    PTSUNNY   66  63  88 SW6       29.84S
FRANKLIN*      RAIN      65  64  95 SW5       29.82F
US460-WAKEFLD  LGT RAIN  67  64  90 SW3       29.81S
$$

VAZ020-022-025-037-045-031200-
WEST CENTRAL AND SOUTHWEST VIRGINIA

CITY           SKY/WX    TMP DP  RH WIND       PRES   REMARKS
STAUNTON*      CLOUDY   N/A N/A N/A CALM      29.85S HAZE
WAYNESBORO*    CLOUDY    58  57  96 CALM      29.84S
HOT SPRINGS VA CLOUDY    53  53 100 W13       29.88S
LYNCHBURG      LGT RAIN  59  59 100 SW3       29.85R
DANVILLE       LGT RAIN  61  60  97 NW6       29.83S
SOUTH BOSTON*  CLOUDY    63  62  95 CALM      29.83S
MARTINSVILLE   LGT RAIN  57  57 100 CALM      29.87S
ROANOKE        CLOUDY    60  58  92 W3        29.87R
BLACKSBURG     RAIN      57  56  99 CALM      29.92R
DUBLIN*        LGT RAIN  57  57 100 E6        29.87F
MARION*        CLOUDY    56  55  96 SW5       29.91R
HILLSVILLE*    CLOUDY    55  55 100 NW7       29.89R
RICHLANDS*     CLOUDY    55  54  97 CALM      29.89S FOG
WISE*          CLOUDY    55  55 100 CALM      29.91R
ABINGDON*      CLOUDY    59  59  99 CALM      29.89S
$$

MDZ021>025-VAZ099-100-031200-
SOUTHERN MARYLAND AND THE DELMARVA PENINSULA

CITY           SKY/WX    TMP DP  RH WIND       PRES   REMARKS
PATUXENT RIVER LGT RAIN  65  62  90 W8        29.79S
BAY BRIDGE APT NOT AVBL
LEONARDTOWN    CLOUDY    63  61  94 SW5       29.81S
DOVER          LGT RAIN  57  57 100 E2        29.78R FOG
GEORGETOWN     LGT RAIN  64  63  96 W3        29.79S
EASTON         RAIN     N/A N/A N/A CALM      29.82S VSB 1
CAMBRIDGE      CLOUDY    63  63 100 SW3       29.79R
SALISBURY      LGT RAIN  64  64 100 S8        29.79S
OCEAN CITY     LGT RAIN  58  58 100 S5        29.80F FOG
WALLOPS ISLAND LGT RAIN  60  59  96 S7        29.81F FOG
ACCOMACK*      LGT RAIN  63  61  94 CALM      29.79F
$$

NCZ012>017-030>032-031200-
NORTH CENTRAL AND EASTERN NORTH CAROLINA

CITY           SKY/WX    TMP DP  RH WIND       PRES   REMARKS
ROANOKE RAPIDS RAIN      63  63 100 CALM      29.83F
RALEIGH        LGT RAIN  64  63  96 CALM      29.84F FOG
ELIZABETH CITY LGT RAIN  69  66  90 W7        29.81F
AHOSKIE*       LGT RAIN  64  64  98 CALM      29.84F
EDENTON*       CLOUDY    69  69 100 CALM      29.82F FOG
CURRITUCK*     DRIZZLE   69  68  96 SW6       29.82F
KILL DEVIL HLS CLOUDY    71  69  92 SW6       29.81F
MANTEO         NOT AVBL
CAPE HATTERAS  CLOUDY    70  68  93 SW13      29.84F
TARBORO*       RAIN      66  64  93 CALM      29.85S
GOLDSBORO      LGT RAIN  68  68 100 W3        29.83S
WASHINGTON     HVY RAIN  65  64  94 SW8       29.84R
GREENVILLE     RAIN      68  68 100 W5        29.88R
NEW BERN       TSTM      67  65  93 W17G30    29.90R VSB 3/4
WILMINGTON     CLOUDY    71  69  93 NW18G25   29.88R THUNDER
$$

VAZ048-031200-
ELSEWHERE

CITY           SKY/WX    TMP DP  RH WIND       PRES   REMARKS
HARRISBURG PA  LGT RAIN  55  52  89 VRB6      29.82R FOG
BALTIMORE      LGT RAIN  59  58  96 N3        29.80R FOG
ANNAPOLIS      LGT RAIN  59  58  96 CALM      29.79R FOG
ANDREWS AFB    CLOUDY    63  63 100 CALM      29.78S
PHILADELPHIA   LGT RAIN  57  53  86 NE9       29.82S
HENDERSON NC   LGT RAIN N/A N/A N/A SW3       29.83S
GREENSBORO     LGT RAIN  63  62  97 W3        29.84R
ROCKY MOUNT    LGT RAIN  65  65 100 CALM      29.85S FOG
$$

VAZ100-031200-
MARINE

STATION/POSITION TIME  TEMP    WIND        PRES    WAVE   SWELL
                       AIR SEA DIR/SP/G            HT/PER HT/PER
                 (UTC) (F)     (DEG/KT/KT) (MB)    (FT/S) (FT/S)
BRANDYWINE LGT   1000   56     180/ 14/ 16 1008.8F
CAPE MAY NJ      1000   57 59  150/  8/ 13 1008.6F
LEWES DE         1000   59 56  170/  7/  9 1008.7F
15NM E FENWICK I 1050   55 52              1009.0F   3/ 6
OCEAN-CITY-INLET 1000   56 56  220/  4/  5 1008.7F
WACHAPREAGUE VA  1000   63 63  200/  2/  4 1009.1S
THOMAS POINT MD  1100   58 58   10/  4/  4 1010.2R
GOOSES REEF MD   1000   61 59   CALM  /  2 1009.6F   0
COVE POINT MD    1000   64     240/  5/  8 1009.2F
SOLOMONS ISLAND  1000   64 61  240/  6/  8   N/A
BISHOPS HEAD MD  1000   63 64  190/ 10/ 10 1008.1F
PINEY POINT MD   1000          280/  4/  4   N/A
POTOMAC MD       1000   63 61  250/  8/  8 1008.0R   0
CAMBRIDGE MD     1000   65 60  210/  3/  5 1007.8F
LEWISETTA VA     1000   65 63  270/  5/  6 1008.7R
RAPPAHANNOCK LGT 1000          190/  9/ 10 1010.0R
STINGRAY PT      1000   64 62  210/  6/  8 1009.7R   0
YORK RVR RNG VA  1000   65     210/  7/  8 1008.8F
YORKTOWN VA      1000   66 63  220/  6/  7 1009.0F
JAMESTOWN VA     1000   66 67  160/  2/  4   N/A     0
DOMINION TERM VA 1000   66     230/  3/  4 1009.6F
KIPTOPEKE VA     1000      62  210/  6/  8   N/A
CHES BAY BRIDGE  1000   67 60  200/  9/ 11 1009.3S
CAPE HENRY VA    1000   68     210/  6/  9   N/A
CHESAPEAKE LGHT  1000   66     190/ 16/ 16 1010.2F
WILLOUBY STN VA  1000   66     220/  7/  7 1010.6R
CAPE HENRY BUOY  1012      59                N/A     3/10
CAPE CHARLES BUO 1026      58                N/A     2/ 5   2/ 9
OFFSHORE WE BUOY 1021      56                N/A     3/ 6   2/10
64NM E OF VA BCH 1050   58 54  220/  6/  8 1009.6F   3/ 5   3/ 5
DUCK PIER NC     1000   70 66  230/  7/  8 1009.9F
44100 DUCK FRF   1024      61                N/A     3/ 6
44056 DUCK FRF   1011      58                N/A     2/ 6
OREGON INLET NC  1000   71 72  210/ 11/ 15 1010.5F
HATTERAS NC      1000   71 70  210/ 11/ 14 1011.1F
DIAMOND SHLS NC  1050   74 73  230/ 16/ 17 1010.5F   5/ 5   2/10
CAPE LOOKOUT NC  1100   71     210/ 12/ 14 1010.9F
$$




USA.gov is the U.S. government's official web portal to all federal, state and local government web resources and services.